Starlink 30811

operational
NORAD ID: 58167 Int'l Des: 2023-166 Owner: SPXS Country: US Constellation: starlink
LEOCIRCULAR

Starlink 30811について

説明を読み込み中...

リアルタイム位置

3D地球を読み込み中...

次回通過

高度履歴

Altitude vs Time

uPlot chart will show altitude changes over time

軌道要素

1 58167U 23166T 25259.17745298 .00010553 00000-0 36778-3 0 9999
2 58167 53.1588 310.0001 0001258 90.5833 269.5312 15.30212356106315
Epoch: Sep 16, 2025 • Age: 8 hours

現在のステータス

高度 475.4 km
速度 7.63 km/s
衛星直下点 22.69°N, 76.83°W
打ち上げ日 Oct 29, 2023
運用期間 1.8 years
タイプ internet

技術仕様

分類 Payload
質量 730.00 kg
乾燥質量 700.00 kg
総質量 730.00 kg
長さ 0.30 m
直径 4.10 m
スパン 29.00 m
形状 Box + pan
製造者 SPXS
バスタイプ Starlink V2M
フェーズステータス In Orbit
所有者/国 SPXS/US

大規模コンステレーション

Loading constellations...